contact:dominique.lefevre@mio.osupytheas.fr, maurice.libes@osupytheas.fr, didier.mallarino@osupytheas.fr
Project:EMSO http://www.emso-fr.org/EMSO-France
Depth: 2436.0 m
Title:EMSO Ligure Ouest : Data MII capteur MICROCAT
DateTime_Computer,Latitude,Longitude,Temperature,Conductivity,Pressure,DateTime_Instrument
DateTime_Computer,Latitude,Longitude,degC,S m-1,dbar,DateTime_Instrument
2020-02-24T00:01:43Z,42.805,6.029,13.2977,4.59976,2469.867,2020-2-24T02:02:18Z
2020-02-24T00:04:46Z,42.805,6.029,13.2979,4.59980,2469.867,2020-2-24T02:05:22Z
2020-02-24T00:07:50Z,42.805,6.029,13.2976,4.59978,2469.853,2020-2-24T02:08:25Z
2020-02-24T00:10:53Z,42.805,6.029,13.2978,4.59977,2469.853,2020-2-24T02:11:28Z
2020-02-24T00:13:56Z,42.805,6.029,13.2977,4.59977,2469.83,2020-2-24T02:14:32Z
2020-02-24T00:16:59Z,42.805,6.029,13.2977,4.59978,2469.844,2020-2-24T02:17:35Z
2020-02-24T00:20:02Z,42.805,6.029,13.2979,4.59980,2469.853,2020-2-24T02:20:38Z
2020-02-24T00:23:06Z,42.805,6.029,13.2976,4.59976,2469.83,2020-2-24T02:23:41Z
2020-02-24T00:26:09Z,42.805,6.029,13.2976,4.59983,2469.853,2020-2-24T02:26:45Z
2020-02-24T00:29:12Z,42.805,6.029,13.2980,4.59978,2469.844,2020-2-24T02:29:48Z
2020-02-24T00:32:15Z,42.805,6.029,13.2975,4.59978,2469.783,2020-2-24T02:32:51Z
2020-02-24T00:35:19Z,42.805,6.029,13.2980,4.59981,2469.83,2020-2-24T02:35:54Z
2020-02-24T00:38:22Z,42.805,6.029,13.2978,4.59978,2469.83,2020-2-24T02:38:57Z
2020-02-24T00:41:25Z,42.805,6.029,13.2971,4.59977,2469.844,2020-2-24T02:42:00Z
2020-02-24T00:44:28Z,42.805,6.029,13.2976,4.59978,2469.83,2020-2-24T02:45:04Z
2020-02-24T00:47:31Z,42.805,6.029,13.2978,4.59980,2469.821,2020-2-24T02:48:07Z
2020-02-24T00:50:35Z,42.805,6.029,13.2978,4.59979,2469.806,2020-2-24T02:51:10Z
2020-02-24T00:53:38Z,42.805,6.029,13.2979,4.59978,2469.844,2020-2-24T02:54:13Z
2020-02-24T00:56:41Z,42.805,6.029,13.2976,4.59980,2469.806,2020-2-24T02:57:17Z
2020-02-24T00:59:44Z,42.805,6.029,13.2979,4.59979,2469.821,2020-2-24T03:00:20Z
2020-02-24T01:02:48Z,42.805,6.029,13.2975,4.59981,2469.821,2020-2-24T03:03:23Z
2020-02-24T01:05:51Z,42.805,6.029,13.2980,4.59979,2469.867,2020-2-24T03:06:26Z
2020-02-24T01:08:54Z,42.805,6.029,13.2980,4.59979,2469.83,2020-2-24T03:09:30Z
2020-02-24T01:11:57Z,42.805,6.029,13.2974,4.59976,2469.83,2020-2-24T03:12:33Z
2020-02-24T01:15:00Z,42.805,6.029,13.2977,4.59978,2469.797,2020-2-24T03:15:36Z
2020-02-24T01:18:04Z,42.805,6.029,13.2979,4.59976,2469.853,2020-2-24T03:18:39Z
2020-02-24T01:21:07Z,42.805,6.029,13.2979,4.59976,2469.806,2020-2-24T03:21:42Z
2020-02-24T01:24:10Z,42.805,6.029,13.2976,4.59976,2469.806,2020-2-24T03:24:45Z
2020-02-24T01:27:13Z,42.805,6.029,13.2979,4.59978,2469.821,2020-2-24T03:27:49Z
2020-02-24T01:30:16Z,42.805,6.029,13.2978,4.59979,2469.844,2020-2-24T03:30:52Z
2020-02-24T01:33:20Z,42.805,6.029,13.2979,4.59978,2469.844,2020-2-24T03:33:55Z
2020-02-24T01:36:23Z,42.805,6.029,13.2976,4.59980,2469.806,2020-2-24T03:36:58Z
2020-02-24T01:39:26Z,42.805,6.029,13.2977,4.59977,2469.806,2020-2-24T03:40:01Z
2020-02-24T01:42:29Z,42.805,6.029,13.2975,4.59978,2469.806,2020-2-24T03:43:05Z
2020-02-24T01:45:32Z,42.805,6.029,13.2976,4.59978,2469.806,2020-2-24T03:46:08Z
2020-02-24T01:48:35Z,42.805,6.029,13.2979,4.59978,2469.806,2020-2-24T03:49:11Z
2020-02-24T01:51:39Z,42.805,6.029,13.2975,4.59978,2469.806,2020-2-24T03:52:14Z
2020-02-24T01:54:42Z,42.805,6.029,13.2975,4.59976,2469.83,2020-2-24T03:55:17Z
2020-02-24T01:57:45Z,42.805,6.029,13.2971,4.59978,2469.821,2020-2-24T03:58:21Z
2020-02-24T02:00:48Z,42.805,6.029,13.2976,4.59976,2469.821,2020-2-24T04:01:24Z
2020-02-24T02:03:51Z,42.805,6.029,13.2977,4.59976,2469.806,2020-2-24T04:04:27Z
2020-02-24T02:06:55Z,42.805,6.029,13.2976,4.59976,2469.806,2020-2-24T04:07:30Z
2020-02-24T02:09:58Z,42.805,6.029,13.2977,4.59979,2469.806,2020-2-24T04:10:33Z
2020-02-24T02:13:01Z,42.805,6.029,13.2974,4.59974,2469.844,2020-2-24T04:13:37Z
2020-02-24T02:16:04Z,42.805,6.029,13.2971,4.59976,2469.806,2020-2-24T04:16:40Z
2020-02-24T02:19:08Z,42.805,6.029,13.2976,4.59976,2469.821,2020-2-24T04:19:43Z
2020-02-24T02:22:11Z,42.805,6.029,13.2975,4.59978,2469.806,2020-2-24T04:22:46Z
2020-02-24T02:25:14Z,42.805,6.029,13.2976,4.59975,2469.806,2020-2-24T04:25:49Z
2020-02-24T02:28:17Z,42.805,6.029,13.2975,4.59977,2469.83,2020-2-24T04:28:53Z
2020-02-24T02:31:20Z,42.805,6.029,13.2975,4.59973,2469.83,2020-2-24T04:31:56Z
2020-02-24T02:34:23Z,42.805,6.029,13.2970,4.59974,2469.806,2020-2-24T04:34:59Z
2020-02-24T02:37:27Z,42.805,6.029,13.2979,4.59976,2469.821,2020-2-24T04:38:02Z
2020-02-24T02:40:30Z,42.805,6.029,13.2974,4.59975,2469.806,2020-2-24T04:41:05Z
2020-02-24T02:43:33Z,42.805,6.029,13.2975,4.59974,2469.83,2020-2-24T04:44:09Z
2020-02-24T02:46:36Z,42.805,6.029,13.2978,4.59974,2469.83,2020-2-24T04:47:12Z
2020-02-24T02:49:39Z,42.805,6.029,13.2978,4.59978,2469.844,2020-2-24T04:50:15Z
2020-02-24T02:52:43Z,42.805,6.029,13.2976,4.59974,2469.821,2020-2-24T04:53:18Z
2020-02-24T02:55:46Z,42.805,6.029,13.2974,4.59976,2469.83,2020-2-24T04:56:21Z
2020-02-24T02:58:49Z,42.805,6.029,13.2975,4.59973,2469.83,2020-2-24T04:59:25Z
2020-02-24T03:01:52Z,42.805,6.029,13.2978,4.59977,2469.844,2020-2-24T05:02:28Z
2020-02-24T03:04:55Z,42.805,6.029,13.2978,4.59975,2469.76,2020-2-24T05:05:31Z
2020-02-24T03:07:59Z,42.805,6.029,13.2972,4.59973,2469.816,2020-2-24T05:08:34Z
2020-02-24T03:11:02Z,42.805,6.029,13.2970,4.59975,2469.83,2020-2-24T05:11:37Z
2020-02-24T03:14:05Z,42.805,6.029,13.2975,4.59975,2469.806,2020-2-24T05:14:41Z
2020-02-24T03:17:08Z,42.805,6.029,13.2975,4.59975,2469.844,2020-2-24T05:17:44Z
2020-02-24T03:20:12Z,42.805,6.029,13.2976,4.59975,2469.853,2020-2-24T05:20:48Z
2020-02-24T03:23:15Z,42.805,6.029,13.2975,4.59975,2469.83,2020-2-24T05:23:51Z
2020-02-24T03:26:18Z,42.805,6.029,13.2976,4.59974,2469.844,2020-2-24T05:26:54Z
2020-02-24T03:29:22Z,42.805,6.029,13.2977,4.59975,2469.853,2020-2-24T05:29:57Z
2020-02-24T03:32:25Z,42.805,6.029,13.2976,4.59975,2469.806,2020-2-24T05:33:00Z
2020-02-24T03:35:28Z,42.805,6.029,13.2977,4.59973,2469.867,2020-2-24T05:36:04Z
2020-02-24T03:38:31Z,42.805,6.029,13.2969,4.59973,2469.867,2020-2-24T05:39:07Z
2020-02-24T03:41:34Z,42.805,6.029,13.2972,4.59973,2469.89,2020-2-24T05:42:10Z
2020-02-24T03:44:38Z,42.805,6.029,13.2976,4.59973,2469.853,2020-2-24T05:45:13Z
2020-02-24T03:47:41Z,42.805,6.029,13.2971,4.59974,2469.853,2020-2-24T05:48:16Z
2020-02-24T03:50:44Z,42.805,6.029,13.2974,4.59974,2469.89,2020-2-24T05:51:20Z
2020-02-24T03:53:47Z,42.805,6.029,13.2973,4.59973,2469.876,2020-2-24T05:54:23Z
2020-02-24T03:56:50Z,42.805,6.029,13.2978,4.59973,2469.844,2020-2-24T05:57:26Z
2020-02-24T03:59:54Z,42.805,6.029,13.2972,4.59973,2469.89,2020-2-24T06:00:29Z
2020-02-24T04:02:57Z,42.805,6.029,13.2970,4.59974,2469.89,2020-2-24T06:03:32Z
2020-02-24T04:06:00Z,42.805,6.029,13.2973,4.59974,2469.867,2020-2-24T06:06:36Z
2020-02-24T04:09:03Z,42.805,6.029,13.2975,4.59973,2469.89,2020-2-24T06:09:39Z
2020-02-24T04:12:06Z,42.805,6.029,13.2974,4.59973,2469.867,2020-2-24T06:12:42Z
2020-02-24T04:15:10Z,42.805,6.029,13.2976,4.59974,2469.876,2020-2-24T06:15:45Z
2020-02-24T04:18:13Z,42.805,6.029,13.2978,4.59975,2469.89,2020-2-24T06:18:48Z
2020-02-24T04:21:16Z,42.805,6.029,13.2975,4.59974,2469.876,2020-2-24T06:21:52Z
2020-02-24T04:24:19Z,42.805,6.029,13.2971,4.59972,2469.876,2020-2-24T06:24:55Z
2020-02-24T04:27:22Z,42.805,6.029,13.2971,4.59973,2469.876,2020-2-24T06:27:58Z
2020-02-24T04:30:26Z,42.805,6.029,13.2970,4.59976,2469.9,2020-2-24T06:31:01Z
2020-02-24T04:33:29Z,42.805,6.029,13.2972,4.59973,2469.9,2020-2-24T06:34:04Z
2020-02-24T04:36:32Z,42.805,6.029,13.2974,4.59973,2469.9,2020-2-24T06:37:08Z
2020-02-24T04:39:35Z,42.805,6.029,13.2976,4.59976,2469.923,2020-2-24T06:40:11Z
2020-02-24T04:42:38Z,42.805,6.029,13.2974,4.59974,2469.9,2020-2-24T06:43:14Z
2020-02-24T04:45:42Z,42.805,6.029,13.2974,4.59973,2469.937,2020-2-24T06:46:17Z
2020-02-24T04:48:45Z,42.805,6.029,13.2971,4.59972,2469.876,2020-2-24T06:49:20Z
2020-02-24T04:51:48Z,42.805,6.029,13.2974,4.59975,2469.9,2020-2-24T06:52:24Z
2020-02-24T04:54:51Z,42.805,6.029,13.2975,4.59973,2469.937,2020-2-24T06:55:27Z
2020-02-24T04:57:54Z,42.805,6.029,13.2977,4.59975,2469.937,2020-2-24T06:58:30Z
2020-02-24T05:00:58Z,42.805,6.029,13.2974,4.59974,2469.914,2020-2-24T07:01:33Z
2020-02-24T05:04:01Z,42.805,6.029,13.2971,4.59973,2469.947,2020-2-24T07:04:36Z
2020-02-24T05:07:04Z,42.805,6.029,13.2975,4.59974,2469.947,2020-2-24T07:07:39Z
2020-02-24T05:10:07Z,42.805,6.029,13.2974,4.59973,2469.96,2020-2-24T07:10:43Z
2020-02-24T05:13:10Z,42.805,6.029,13.2972,4.59972,2469.947,2020-2-24T07:13:46Z
2020-02-24T05:16:13Z,42.805,6.029,13.2974,4.59973,2469.97,2020-2-24T07:16:49Z
2020-02-24T05:19:17Z,42.805,6.029,13.2971,4.59976,2469.947,2020-2-24T07:19:52Z
2020-02-24T05:22:20Z,42.805,6.029,13.2971,4.59973,2469.984,2020-2-24T07:22:55Z
2020-02-24T05:25:23Z,42.805,6.029,13.2976,4.59974,2469.947,2020-2-24T07:25:59Z
2020-02-24T05:28:26Z,42.805,6.029,13.2974,4.59974,2469.947,2020-2-24T07:29:02Z
2020-02-24T05:31:29Z,42.805,6.029,13.2973,4.59973,2469.96,2020-2-24T07:32:05Z
2020-02-24T05:34:33Z,42.805,6.029,13.2974,4.59974,2470.007,2020-2-24T07:35:08Z
2020-02-24T05:37:36Z,42.805,6.029,13.2973,4.59974,2469.984,2020-2-24T07:38:11Z
2020-02-24T05:40:39Z,42.805,6.029,13.2971,4.59974,2469.97,2020-2-24T07:41:15Z
2020-02-24T05:43:42Z,42.805,6.029,13.2974,4.59973,2469.947,2020-2-24T07:44:18Z
2020-02-24T05:46:45Z,42.805,6.029,13.2971,4.59973,2469.984,2020-2-24T07:47:21Z
2020-02-24T05:49:49Z,42.805,6.029,13.2973,4.59973,2469.97,2020-2-24T07:50:24Z
2020-02-24T05:52:52Z,42.805,6.029,13.2975,4.59973,2470.017,2020-2-24T07:53:28Z
2020-02-24T05:55:55Z,42.805,6.029,13.2968,4.59974,2469.993,2020-2-24T07:56:31Z
2020-02-24T05:58:59Z,42.805,6.029,13.2971,4.59975,2469.979,2020-2-24T07:59:34Z
2020-02-24T06:02:02Z,42.805,6.029,13.2974,4.59979,2469.993,2020-2-24T08:02:37Z
2020-02-24T06:05:05Z,42.805,6.029,13.2975,4.59975,2470.007,2020-2-24T08:05:41Z
2020-02-24T06:08:08Z,42.805,6.029,13.2968,4.59973,2470.017,2020-2-24T08:08:44Z
2020-02-24T06:11:11Z,42.805,6.029,13.2973,4.59974,2470.017,2020-2-24T08:11:47Z
2020-02-24T06:14:15Z,42.805,6.029,13.2974,4.59977,2469.993,2020-2-24T08:14:50Z
2020-02-24T06:17:18Z,42.805,6.029,13.2974,4.59976,2470.007,2020-2-24T08:17:53Z
2020-02-24T06:20:21Z,42.805,6.029,13.2974,4.59973,2470.007,2020-2-24T08:20:57Z
2020-02-24T06:23:24Z,42.805,6.029,13.2970,4.59974,2470.017,2020-2-24T08:24:00Z
2020-02-24T06:26:27Z,42.805,6.029,13.2971,4.59974,2469.979,2020-2-24T08:27:03Z
2020-02-24T06:29:31Z,42.805,6.029,13.2971,4.59973,2470.017,2020-2-24T08:30:06Z
2020-02-24T06:32:34Z,42.805,6.029,13.2974,4.59975,2470.03,2020-2-24T08:33:09Z
2020-02-24T06:35:37Z,42.805,6.029,13.2972,4.59975,2470.017,2020-2-24T08:36:12Z
2020-02-24T06:38:40Z,42.805,6.029,13.2969,4.59976,2470.04,2020-2-24T08:39:16Z
2020-02-24T06:41:43Z,42.805,6.029,13.2970,4.59974,2470.04,2020-2-24T08:42:19Z
2020-02-24T06:44:47Z,42.805,6.029,13.2971,4.59973,2470.04,2020-2-24T08:45:22Z
2020-02-24T06:47:50Z,42.805,6.029,13.2974,4.59973,2470.026,2020-2-24T08:48:25Z
2020-02-24T06:50:53Z,42.805,6.029,13.2971,4.59974,2470.053,2020-2-24T08:51:28Z
2020-02-24T06:53:56Z,42.805,6.029,13.2971,4.59976,2470.04,2020-2-24T08:54:32Z
2020-02-24T06:56:59Z,42.805,6.029,13.2971,4.59976,2470.017,2020-2-24T08:57:35Z
2020-02-24T07:00:02Z,42.805,6.029,13.2973,4.59975,2470.007,2020-2-24T09:00:38Z
2020-02-24T07:03:06Z,42.805,6.029,13.2971,4.59975,2470.053,2020-2-24T09:03:41Z
2020-02-24T07:06:09Z,42.805,6.029,13.2980,4.59976,2470.017,2020-2-24T09:06:45Z
2020-02-24T07:09:12Z,42.805,6.029,13.2971,4.59976,2470.063,2020-2-24T09:09:48Z
2020-02-24T07:12:15Z,42.805,6.029,13.2974,4.59978,2470.04,2020-2-24T09:12:51Z
2020-02-24T07:15:19Z,42.805,6.029,13.2971,4.59976,2470.04,2020-2-24T09:15:54Z
2020-02-24T07:18:22Z,42.805,6.029,13.2971,4.59978,2470.063,2020-2-24T09:18:57Z
2020-02-24T07:21:25Z,42.805,6.029,13.2970,4.59973,2470.04,2020-2-24T09:22:01Z
2020-02-24T07:24:28Z,42.805,6.029,13.2971,4.59974,2470.077,2020-2-24T09:25:04Z
2020-02-24T07:27:32Z,42.805,6.029,13.2974,4.59978,2470.077,2020-2-24T09:28:07Z
2020-02-24T07:30:35Z,42.805,6.029,13.2974,4.59976,2470.04,2020-2-24T09:31:10Z
2020-02-24T07:33:38Z,42.805,6.029,13.2973,4.59976,2470.04,2020-2-24T09:34:14Z
2020-02-24T07:36:41Z,42.805,6.029,13.2975,4.59973,2470.063,2020-2-24T09:37:17Z
2020-02-24T07:39:44Z,42.805,6.029,13.2969,4.59975,2470.053,2020-2-24T09:40:20Z
2020-02-24T07:42:48Z,42.805,6.029,13.2968,4.59975,2470.1,2020-2-24T09:43:23Z
2020-02-24T07:45:51Z,42.805,6.029,13.2973,4.59978,2470.04,2020-2-24T09:46:26Z
2020-02-24T07:48:54Z,42.805,6.029,13.2971,4.59977,2470.077,2020-2-24T09:49:30Z
2020-02-24T07:51:57Z,42.805,6.029,13.2972,4.59975,2470.077,2020-2-24T09:52:33Z
2020-02-24T07:55:00Z,42.805,6.029,13.2974,4.59979,2470.077,2020-2-24T09:55:36Z
2020-02-24T07:58:04Z,42.805,6.029,13.2970,4.59975,2470.053,2020-2-24T09:58:39Z
2020-02-24T08:01:07Z,42.805,6.029,13.2970,4.59977,2470.077,2020-2-24T10:01:43Z
2020-02-24T08:04:10Z,42.805,6.029,13.2976,4.59973,2470.053,2020-2-24T10:04:46Z
2020-02-24T08:07:13Z,42.805,6.029,13.2970,4.59974,2470.063,2020-2-24T10:07:49Z
2020-02-24T08:10:17Z,42.805,6.029,13.2970,4.59974,2470.063,2020-2-24T10:10:52Z
2020-02-24T08:13:20Z,42.805,6.029,13.2971,4.59978,2470.077,2020-2-24T10:13:56Z
2020-02-24T08:16:23Z,42.805,6.029,13.2973,4.59977,2470.063,2020-2-24T10:16:59Z
2020-02-24T08:19:27Z,42.805,6.029,13.2973,4.59973,2470.077,2020-2-24T10:20:02Z
2020-02-24T08:22:30Z,42.805,6.029,13.2971,4.59973,2470.077,2020-2-24T10:23:05Z
2020-02-24T08:25:33Z,42.805,6.029,13.2974,4.59976,2470.053,2020-2-24T10:26:09Z
2020-02-24T08:28:36Z,42.805,6.029,13.2974,4.59974,2470.063,2020-2-24T10:29:12Z
2020-02-24T08:31:39Z,42.805,6.029,13.2968,4.59976,2470.04,2020-2-24T10:32:15Z
2020-02-24T08:34:42Z,42.805,6.029,13.2974,4.59976,2470.04,2020-2-24T10:35:18Z
2020-02-24T08:37:46Z,42.805,6.029,13.2975,4.59978,2470.077,2020-2-24T10:38:21Z
2020-02-24T08:40:49Z,42.805,6.029,13.2976,4.59978,2470.063,2020-2-24T10:41:24Z
2020-02-24T08:43:52Z,42.805,6.029,13.2971,4.59973,2470.077,2020-2-24T10:44:28Z
2020-02-24T08:46:55Z,42.805,6.029,13.2974,4.59975,2470.063,2020-2-24T10:47:31Z
2020-02-24T08:49:59Z,42.805,6.029,13.2970,4.59975,2470.087,2020-2-24T10:50:34Z
2020-02-24T08:53:02Z,42.805,6.029,13.2972,4.59981,2470.04,2020-2-24T10:53:37Z
2020-02-24T08:56:05Z,42.805,6.029,13.2976,4.59979,2470.04,2020-2-24T10:56:40Z
2020-02-24T08:59:08Z,42.805,6.029,13.2973,4.59977,2470.087,2020-2-24T10:59:44Z
2020-02-24T09:02:11Z,42.805,6.029,13.2970,4.59974,2470.077,2020-2-24T11:02:47Z
2020-02-24T09:05:14Z,42.805,6.029,13.2971,4.59973,2470.063,2020-2-24T11:05:50Z
2020-02-24T09:08:18Z,42.805,6.029,13.2969,4.59974,2470.053,2020-2-24T11:08:53Z
2020-02-24T09:11:21Z,42.805,6.029,13.2971,4.59976,2470.04,2020-2-24T11:11:56Z
2020-02-24T09:14:24Z,42.805,6.029,13.2973,4.59978,2470.04,2020-2-24T11:15:00Z
2020-02-24T09:17:27Z,42.805,6.029,13.2973,4.59978,2470.053,2020-2-24T11:18:03Z
2020-02-24T09:20:31Z,42.805,6.029,13.2974,4.59982,2470.053,2020-2-24T11:21:06Z
2020-02-24T09:23:34Z,42.805,6.029,13.2971,4.59979,2470.053,2020-2-24T11:24:09Z
2020-02-24T09:26:37Z,42.805,6.029,13.2973,4.59975,2470.053,2020-2-24T11:27:12Z
2020-02-24T09:29:40Z,42.805,6.029,13.2971,4.59988,2470.063,2020-2-24T11:30:16Z
2020-02-24T09:32:43Z,42.805,6.029,13.2975,4.59975,2470.04,2020-2-24T11:33:19Z
2020-02-24T09:35:46Z,42.805,6.029,13.2971,4.59980,2470.077,2020-2-24T11:36:22Z
2020-02-24T09:38:50Z,42.805,6.029,13.2971,4.59974,2470.053,2020-2-24T11:39:25Z
2020-02-24T09:41:53Z,42.805,6.029,13.2973,4.59976,2470.04,2020-2-24T11:42:29Z
2020-02-24T09:44:56Z,42.805,6.029,13.2971,4.59978,2470.04,2020-2-24T11:45:32Z
2020-02-24T09:47:59Z,42.805,6.029,13.2971,4.59976,2470.04,2020-2-24T11:48:35Z
2020-02-24T09:51:03Z,42.805,6.029,13.2972,4.59976,2470.053,2020-2-24T11:51:38Z
2020-02-24T09:54:06Z,42.805,6.029,13.2975,4.59982,2470.063,2020-2-24T11:54:41Z
2020-02-24T09:57:09Z,42.805,6.029,13.2974,4.59975,2470.053,2020-2-24T11:57:45Z
2020-02-24T10:00:12Z,42.805,6.029,13.2972,4.59973,2470.03,2020-2-24T12:00:48Z
2020-02-24T10:03:15Z,42.805,6.029,13.2971,4.59976,2470.017,2020-2-24T12:03:51Z
2020-02-24T10:06:19Z,42.805,6.029,13.2977,4.59980,2470.017,2020-2-24T12:06:54Z
2020-02-24T10:09:22Z,42.805,6.029,13.2972,4.59980,2470.017,2020-2-24T12:09:57Z
2020-02-24T10:12:25Z,42.805,6.029,13.2974,4.59979,2470.03,2020-2-24T12:13:01Z
2020-02-24T10:15:29Z,42.805,6.029,13.2974,4.59981,2470.03,2020-2-24T12:16:04Z
2020-02-24T10:18:32Z,42.805,6.029,13.2971,4.59978,2470.017,2020-2-24T12:19:07Z
2020-02-24T10:21:35Z,42.805,6.029,13.2973,4.59981,2470.007,2020-2-24T12:22:11Z
2020-02-24T10:24:38Z,42.805,6.029,13.2974,4.59978,2470.017,2020-2-24T12:25:14Z
2020-02-24T10:27:41Z,42.805,6.029,13.2971,4.59976,2470.03,2020-2-24T12:28:17Z
2020-02-24T10:30:45Z,42.805,6.029,13.2973,4.59980,2470.03,2020-2-24T12:31:20Z
2020-02-24T10:33:48Z,42.805,6.029,13.2973,4.59975,2469.993,2020-2-24T12:34:23Z
2020-02-24T10:36:51Z,42.805,6.029,13.2976,4.59975,2470.03,2020-2-24T12:37:27Z
2020-02-24T10:39:55Z,42.805,6.029,13.2974,4.59978,2470.007,2020-2-24T12:40:30Z
2020-02-24T10:42:58Z,42.805,6.029,13.2971,4.59974,2469.984,2020-2-24T12:43:33Z
2020-02-24T10:46:01Z,42.805,6.029,13.2971,4.59976,2470.007,2020-2-24T12:46:37Z
2020-02-24T10:49:04Z,42.805,6.029,13.2972,4.59978,2469.97,2020-2-24T12:49:40Z
2020-02-24T10:52:08Z,42.805,6.029,13.2973,4.59976,2469.97,2020-2-24T12:52:43Z
2020-02-24T10:55:11Z,42.805,6.029,13.2973,4.59976,2469.956,2020-2-24T12:55:46Z
2020-02-24T10:58:14Z,42.805,6.029,13.2974,4.59981,2470.017,2020-2-24T12:58:50Z
2020-02-24T11:01:17Z,42.805,6.029,13.2971,4.59981,2469.97,2020-2-24T13:01:53Z
2020-02-24T11:04:20Z,42.805,6.029,13.2972,4.59978,2469.96,2020-2-24T13:04:56Z
2020-02-24T11:07:24Z,42.805,6.029,13.2975,4.59976,2470.007,2020-2-24T13:07:59Z
2020-02-24T11:10:27Z,42.805,6.029,13.2974,4.59976,2469.993,2020-2-24T13:11:02Z
2020-02-24T11:13:30Z,42.805,6.029,13.2976,4.59978,2469.96,2020-2-24T13:14:06Z
2020-02-24T11:16:33Z,42.805,6.029,13.2968,4.59979,2469.947,2020-2-24T13:17:09Z
2020-02-24T11:19:36Z,42.805,6.029,13.2970,4.59975,2469.947,2020-2-24T13:20:12Z
2020-02-24T11:22:40Z,42.805,6.029,13.2970,4.59978,2469.947,2020-2-24T13:23:15Z
2020-02-24T11:25:43Z,42.805,6.029,13.2977,4.59981,2469.993,2020-2-24T13:26:18Z
2020-02-24T11:28:46Z,42.805,6.029,13.2974,4.59978,2469.96,2020-2-24T13:29:21Z
2020-02-24T11:31:49Z,42.805,6.029,13.2974,4.59977,2469.923,2020-2-24T13:32:25Z
2020-02-24T11:34:52Z,42.805,6.029,13.2974,4.59978,2469.947,2020-2-24T13:35:28Z
2020-02-24T11:37:55Z,42.805,6.029,13.2971,4.59973,2469.923,2020-2-24T13:38:31Z
2020-02-24T11:40:59Z,42.805,6.029,13.2978,4.59981,2469.923,2020-2-24T13:41:34Z
2020-02-24T11:44:02Z,42.805,6.029,13.2970,4.59978,2469.96,2020-2-24T13:44:37Z
2020-02-24T11:47:05Z,42.805,6.029,13.2973,4.59976,2469.947,2020-2-24T13:47:41Z
2020-02-24T11:50:08Z,42.805,6.029,13.2969,4.59978,2469.923,2020-2-24T13:50:44Z
2020-02-24T11:53:11Z,42.805,6.029,13.2975,4.59980,2469.923,2020-2-24T13:53:47Z
2020-02-24T11:56:15Z,42.805,6.029,13.2973,4.59976,2469.947,2020-2-24T13:56:50Z
2020-02-24T11:59:18Z,42.805,6.029,13.2973,4.59978,2469.937,2020-2-24T13:59:53Z
2020-02-24T12:02:21Z,42.805,6.029,13.2973,4.59976,2469.937,2020-2-24T14:02:57Z
2020-02-24T12:05:24Z,42.805,6.029,13.2974,4.59980,2469.96,2020-2-24T14:06:00Z
2020-02-24T12:08:27Z,42.805,6.029,13.2975,4.59978,2469.937,2020-2-24T14:09:03Z
2020-02-24T12:11:31Z,42.805,6.029,13.2974,4.59978,2469.923,2020-2-24T14:12:06Z
2020-02-24T12:14:34Z,42.805,6.029,13.2973,4.59981,2469.937,2020-2-24T14:15:09Z
2020-02-24T12:17:37Z,42.805,6.029,13.2976,4.59976,2469.937,2020-2-24T14:18:13Z
2020-02-24T12:20:41Z,42.805,6.029,13.2975,4.59980,2469.876,2020-2-24T14:21:16Z
2020-02-24T12:23:44Z,42.805,6.029,13.2971,4.59978,2469.923,2020-2-24T14:24:19Z
2020-02-24T12:26:47Z,42.805,6.029,13.2974,4.59978,2469.9,2020-2-24T14:27:23Z
2020-02-24T12:29:50Z,42.805,6.029,13.2974,4.59980,2469.923,2020-2-24T14:30:26Z
2020-02-24T12:32:54Z,42.805,6.029,13.2971,4.59976,2469.914,2020-2-24T14:33:29Z
2020-02-24T12:35:57Z,42.805,6.029,13.2974,4.59978,2469.914,2020-2-24T14:36:32Z
2020-02-24T12:39:00Z,42.805,6.029,13.2979,4.59978,2469.876,2020-2-24T14:39:36Z
2020-02-24T12:42:03Z,42.805,6.029,13.2974,4.59978,2469.89,2020-2-24T14:42:39Z
2020-02-24T12:45:07Z,42.805,6.029,13.2978,4.59981,2469.914,2020-2-24T14:45:42Z
2020-02-24T12:48:10Z,42.805,6.029,13.2972,4.59976,2469.923,2020-2-24T14:48:45Z
2020-02-24T12:51:13Z,42.805,6.029,13.2976,4.59979,2469.923,2020-2-24T14:51:49Z
2020-02-24T12:54:16Z,42.805,6.029,13.2976,4.59978,2469.867,2020-2-24T14:54:52Z
2020-02-24T12:57:19Z,42.805,6.029,13.2974,4.59976,2469.863,2020-2-24T14:57:55Z
2020-02-24T13:00:23Z,42.805,6.029,13.2976,4.59978,2469.9,2020-2-24T15:00:58Z
2020-02-24T13:03:26Z,42.805,6.029,13.2976,4.59980,2469.9,2020-2-24T15:04:01Z
2020-02-24T13:06:29Z,42.805,6.029,13.2977,4.59980,2469.9,2020-2-24T15:07:04Z
2020-02-24T13:09:32Z,42.805,6.029,13.2976,4.59980,2469.89,2020-2-24T15:10:08Z
2020-02-24T13:12:35Z,42.805,6.029,13.2978,4.59978,2469.853,2020-2-24T15:13:11Z
2020-02-24T13:15:39Z,42.805,6.029,13.2977,4.59976,2469.876,2020-2-24T15:16:14Z
2020-02-24T13:18:42Z,42.805,6.029,13.2973,4.59978,2469.876,2020-2-24T15:19:17Z
2020-02-24T13:21:45Z,42.805,6.029,13.2979,4.59982,2469.876,2020-2-24T15:22:21Z
2020-02-24T13:24:48Z,42.805,6.029,13.2977,4.59979,2469.844,2020-2-24T15:25:24Z
2020-02-24T13:27:51Z,42.805,6.029,13.2982,4.59984,2469.853,2020-2-24T15:28:27Z
2020-02-24T13:30:54Z,42.805,6.029,13.2976,4.59978,2469.867,2020-2-24T15:31:30Z
2020-02-24T13:33:58Z,42.805,6.029,13.2978,4.59982,2469.806,2020-2-24T15:34:33Z
2020-02-24T13:37:01Z,42.805,6.029,13.2974,4.59976,2469.867,2020-2-24T15:37:37Z
2020-02-24T13:40:04Z,42.805,6.029,13.2978,4.59978,2469.876,2020-2-24T15:40:40Z
2020-02-24T13:43:07Z,42.805,6.029,13.2980,4.59981,2469.853,2020-2-24T15:43:43Z
2020-02-24T13:46:11Z,42.805,6.029,13.2977,4.59978,2469.867,2020-2-24T15:46:46Z
2020-02-24T13:49:14Z,42.805,6.029,13.2979,4.59985,2469.83,2020-2-24T15:49:49Z
2020-02-24T13:52:17Z,42.805,6.029,13.2979,4.59984,2469.853,2020-2-24T15:52:53Z
2020-02-24T13:55:20Z,42.805,6.029,13.2976,4.59982,2469.867,2020-2-24T15:55:56Z
2020-02-24T13:58:23Z,42.805,6.029,13.2981,4.59978,2469.83,2020-2-24T15:58:59Z
2020-02-24T14:01:27Z,42.805,6.029,13.2983,4.59980,2469.844,2020-2-24T16:02:02Z
2020-02-24T14:04:30Z,42.805,6.029,13.2977,4.59979,2469.83,2020-2-24T16:05:06Z
2020-02-24T14:07:33Z,42.805,6.029,13.2983,4.59982,2469.853,2020-2-24T16:08:09Z
2020-02-24T14:10:36Z,42.805,6.029,13.2979,4.59981,2469.853,2020-2-24T16:11:12Z
2020-02-24T14:13:40Z,42.805,6.029,13.2979,4.59981,2469.844,2020-2-24T16:14:15Z
2020-02-24T14:16:43Z,42.805,6.029,13.2979,4.59980,2469.844,2020-2-24T16:17:18Z
2020-02-24T14:19:46Z,42.805,6.029,13.2979,4.59981,2469.844,2020-2-24T16:20:22Z
2020-02-24T14:22:49Z,42.805,6.029,13.2979,4.59981,2469.83,2020-2-24T16:23:25Z
2020-02-24T14:25:52Z,42.805,6.029,13.2980,4.59982,2469.853,2020-2-24T16:26:28Z
2020-02-24T14:28:56Z,42.805,6.029,13.2981,4.59983,2469.806,2020-2-24T16:29:31Z
2020-02-24T14:31:59Z,42.805,6.029,13.2980,4.59981,2469.876,2020-2-24T16:32:34Z
2020-02-24T14:35:02Z,42.805,6.029,13.2978,4.59981,2469.853,2020-2-24T16:35:38Z
2020-02-24T14:38:05Z,42.805,6.029,13.2979,4.59980,2469.853,2020-2-24T16:38:41Z
2020-02-24T14:41:08Z,42.805,6.029,13.2982,4.59982,2469.83,2020-2-24T16:41:44Z
2020-02-24T14:44:11Z,42.805,6.029,13.2983,4.59983,2469.853,2020-2-24T16:44:47Z
2020-02-24T14:47:15Z,42.805,6.029,13.2978,4.59979,2469.853,2020-2-24T16:47:50Z
2020-02-24T14:50:18Z,42.805,6.029,13.2982,4.59981,2469.806,2020-2-24T16:50:54Z
2020-02-24T14:53:21Z,42.805,6.029,13.2979,4.59981,2469.83,2020-2-24T16:53:57Z
2020-02-24T14:56:24Z,42.805,6.029,13.2975,4.59981,2469.816,2020-2-24T16:57:00Z
2020-02-24T14:59:28Z,42.805,6.029,13.2981,4.59981,2469.783,2020-2-24T17:00:04Z
2020-02-24T15:02:31Z,42.805,6.029,13.2981,4.59982,2469.806,2020-2-24T17:03:07Z
2020-02-24T15:05:34Z,42.805,6.029,13.2979,4.59982,2469.821,2020-2-24T17:06:10Z
2020-02-24T15:08:38Z,42.805,6.029,13.2982,4.59983,2469.83,2020-2-24T17:09:13Z
2020-02-24T15:11:41Z,42.805,6.029,13.2983,4.59979,2469.83,2020-2-24T17:12:16Z
2020-02-24T15:14:44Z,42.805,6.029,13.2980,4.59980,2469.821,2020-2-24T17:15:20Z